When you browse on this site, cookies collect data to enhance your experience and personalize the content and advertising you see.
Visit our Privacy Policy to learn more. By continuing to use the site, you agree to this use of cookies and data.
  • In Hungary
  • List of Countries
  • For 7 days
  • Water Temperature
  • Satellite Maps
  • Weather Map
  • News
  • Weather Widgets
  • user-avatar
    Login

    Hourly Weather Biskira

    Today, 19 April, Friday

    Time Temperature Precipitation Wind Pressure Humidity
    00:00 +27°C° 0 mm 6 mps 749 mmHg 30%
    01:00 +26°C° 0 mm 6 mps 749 mmHg 31%
    02:00 +26°C° 0 mm 6 mps 749 mmHg 33%
    03:00 +24°C° 0 mm 6 mps 749 mmHg 34%
    04:00 +24°C° 0 mm 7 mps 749 mmHg 32%
    05:00 +24°C° 0 mm 7 mps 749 mmHg 30%
    06:00 +26°C° 0 mm 7 mps 749 mmHg 28%
    07:00 +27°C° 0 mm 9 mps 749 mmHg 26%
    08:00 +28°C° 0 mm 11 mps 749 mmHg 25%
    09:00 +29°C° 0 mm 13 mps 749 mmHg 23%
    10:00 +31°C° 0 mm 13 mps 749 mmHg 23%
    11:00 +32°C° 0 mm 14 mps 749 mmHg 22%
    12:00 +33°C° 0 mm 14 mps 748 mmHg 21%
    13:00 +33°C° 0 mm 14 mps 748 mmHg 22%
    14:00 +33°C° 0 mm 15 mps 747 mmHg 22%
    15:00 +33°C° 0 mm 15 mps 746 mmHg 22%
    16:00 +32°C° 0 mm 14 mps 746 mmHg 22%
    17:00 +32°C° 0 mm 14 mps 746 mmHg 23%
    18:00 +31°C° 0 mm 14 mps 745 mmHg 23%
    19:00 +31°C° 0 mm 13 mps 746 mmHg 23%
    20:00 +29°C° 0 mm 13 mps 746 mmHg 24%
    21:00 +29°C° 0 mm 13 mps 747 mmHg 24%
    22:00 +28°C° 0 mm 13 mps 747 mmHg 26%
    23:00 +27°C° 0 mm 13 mps 747 mmHg 27%

    Tomorrow, 20 April, Saturday

    Time Temperature Precipitation Wind Pressure Humidity
    00:00 +26°C° 0 mm 13 mps 747 mmHg 28%
    01:00 +26°C° 0 mm 12 mps 746 mmHg 30%
    02:00 +24°C° 0 mm 11 mps 746 mmHg 32%
    03:00 +24°C° 0 mm 10 mps 746 mmHg 34%
    04:00 +24°C° 0 mm 10 mps 746 mmHg 34%
    05:00 +23°C° 0 mm 10 mps 746 mmHg 34%
    06:00 +23°C° 0 mm 11 mps 746 mmHg 34%
    07:00 +26°C° 0 mm 12 mps 746 mmHg 32%
    08:00 +27°C° 0 mm 13 mps 746 mmHg 30%
    09:00 +28°C° 0 mm 14 mps 746 mmHg 28%
    10:00 +29°C° 0 mm 13 mps 746 mmHg 27%
    11:00 +29°C° 0 mm 13 mps 746 mmHg 26%
    12:00 +31°C° 0 mm 13 mps 746 mmHg 25%
    13:00 +32°C° 0 mm 12 mps 745 mmHg 24%
    14:00 +33°C° 0 mm 11 mps 745 mmHg 23%
    15:00 +33°C° 0 mm 11 mps 744 mmHg 22%
    16:00 +33°C° 0 mm 10 mps 744 mmHg 22%
    17:00 +32°C° 0 mm 8 mps 744 mmHg 23%
    18:00 +30°C° 0 mm 7 mps 744 mmHg 24%
    19:00 +29°C° 0 mm 7 mps 745 mmHg 26%
    20:00 +28°C° 0 mm 7 mps 745 mmHg 28%
    21:00 +28°C° 0 mm 6 mps 746 mmHg 30%
    22:00 +27°C° 0 mm 5 mps 745 mmHg 32%
    23:00 +26°C° 0 mm 4 mps 745 mmHg 33%

    Day after tomorrow, 21 April, Sunday

    Time Temperature Precipitation Wind Pressure Humidity
    00:00 +25°C° 0 mm 3 mps 745 mmHg 34%
    01:00 +24°C° 0 mm 2 mps 744 mmHg 36%
    02:00 +24°C° 0 mm 2 mps 744 mmHg 39%
    03:00 +23°C° 0 mm 1 mps 743 mmHg 41%
    04:00 +23°C° 0 mm 1 mps 743 mmHg 41%
    05:00 +23°C° 0 mm 1 mps 743 mmHg 41%
    06:00 +23°C° 0 mm 1 mps 743 mmHg 42%
    07:00 +25°C° 0 mm 3 mps 743 mmHg 36%
    08:00 +27°C° 0 mm 6 mps 742 mmHg 31%
    09:00 +28°C° 0 mm 8 mps 742 mmHg 25%
    10:00 +31°C° 0 mm 9 mps 741 mmHg 24%
    11:00 +32°C° 0 mm 9 mps 741 mmHg 22%
    12:00 +33°C° 0 mm 10 mps 740 mmHg 21%
    13:00 +34°C° 0 mm 9 mps 740 mmHg 17%
    14:00 +35°C° 0 mm 8 mps 739 mmHg 14%
    15:00 +37°C° 0 mm 8 mps 738 mmHg 10%
    16:00 +36°C° 0 mm 7 mps 738 mmHg 9%
    17:00 +35°C° 0 mm 7 mps 737 mmHg 8%
    18:00 +35°C° 0 mm 7 mps 736 mmHg 8%
    19:00 +34°C° 0 mm 7 mps 737 mmHg 8%
    20:00 +32°C° 0 mm 6 mps 737 mmHg 9%
    21:00 +30°C° 0 mm 6 mps 738 mmHg 9%
    22:00 +29°C° 0 mm 5 mps 738 mmHg 11%
    23:00 +28°C° 0 mm 5 mps 738 mmHg 14%

    22 April, Monday

    Time Temperature Precipitation Wind Pressure Humidity
    00:00 +27°C° 0 mm 5 mps 738 mmHg 16%
    01:00 +26°C° 0 mm 5 mps 737 mmHg 18%
    02:00 +24°C° 0 mm 6 mps 737 mmHg 21%
    03:00 +23°C° 0 mm 6 mps 736 mmHg 23%
    04:00 +23°C° 0 mm 6 mps 737 mmHg 30%
    05:00 +22°C° 0 mm 5 mps 737 mmHg 36%
    06:00 +22°C° 0 mm 5 mps 737 mmHg 42%
    07:00 +22°C° 0 mm 5 mps 738 mmHg 42%
    08:00 +23°C° 0 mm 5 mps 738 mmHg 42%
    09:00 +23°C° 0 mm 5 mps 739 mmHg 43%
    10:00 +25°C° 0 mm 5 mps 739 mmHg 40%
    11:00 +24°C° 0 mm 6 mps 739 mmHg 37%
    12:00 +26°C° 0 mm 6 mps 739 mmHg 34%
    13:00 +26°C° 0 mm 7 mps 739 mmHg 35%
    14:00 +26°C° 0 mm 8 mps 739 mmHg 35%
    15:00 +26°C° 0 mm 8 mps 739 mmHg 35%
    16:00 +26°C° 0 mm 8 mps 740 mmHg 35%
    17:00 +26°C° 0 mm 8 mps 741 mmHg 35%
    18:00 +24°C° 0 mm 7 mps 741 mmHg 34%
    19:00 +24°C° 0 mm 6 mps 742 mmHg 37%
    20:00 +23°C° 0 mm 6 mps 743 mmHg 40%
    21:00 +22°C° 0 mm 5 mps 744 mmHg 42%
    22:00 +21°C° 0 mm 5 mps 744 mmHg 45%
    23:00 +21°C° 0 mm 5 mps 743 mmHg 48%

    23 April, Tuesday

    Time Temperature Precipitation Wind Pressure Humidity
    00:00 +20°C° 0 mm 4 mps 743 mmHg 51%
    01:00 +19°C° 0 mm 4 mps 743 mmHg 51%
    02:00 +19°C° 0 mm 4 mps 743 mmHg 52%
    03:00 +18°C° 0 mm 4 mps 743 mmHg 53%
    04:00 +18°C° 0 mm 3 mps 744 mmHg 52%
    05:00 +19°C° 0 mm 3 mps 744 mmHg 51%
    06:00 +19°C° 0 mm 2 mps 745 mmHg 51%
    07:00 +20°C° 0 mm 2 mps 745 mmHg 46%
    08:00 +21°C° 0 mm 2 mps 746 mmHg 42%
    09:00 +23°C° 0 mm 1 mps 746 mmHg 38%
    10:00 +24°C° 0 mm 1 mps 746 mmHg 34%
    11:00 +26°C° 0 mm 2 mps 746 mmHg 30%
    12:00 +27°C° 0 mm 2 mps 745 mmHg 26%
    13:00 +28°C° 0 mm 2 mps 745 mmHg 25%
    14:00 +28°C° 0 mm 3 mps 745 mmHg 23%
    15:00 +29°C° 0 mm 3 mps 744 mmHg 22%
    16:00 +29°C° 0 mm 3 mps 745 mmHg 22%
    17:00 +29°C° 0 mm 3 mps 745 mmHg 22%
    18:00 +29°C° 0 mm 4 mps 745 mmHg 22%
    19:00 +28°C° 0 mm 5 mps 745 mmHg 23%
    20:00 +28°C° 0 mm 6 mps 745 mmHg 24%
    21:00 +27°C° 0 mm 7 mps 746 mmHg 25%
    22:00 +27°C° 0 mm 6 mps 745 mmHg 25%
    23:00 +26°C° 0 mm 6 mps 745 mmHg 25%

    24 April, Wednesday

    Time Temperature Precipitation Wind Pressure Humidity
    00:00 +26°C° 0 mm 5 mps 745 mmHg 25%
    01:00 +26°C° 0 mm 5 mps 745 mmHg 24%
    02:00 +26°C° 0 mm 5 mps 744 mmHg 24%
    03:00 +25°C° 0 mm 4 mps 744 mmHg 23%
    04:00 +26°C° 0 mm 5 mps 744 mmHg 23%
    05:00 +26°C° 0 mm 6 mps 744 mmHg 23%
    06:00 +26°C° 0 mm 7 mps 744 mmHg 22%
    07:00 +28°C° 0 mm 8 mps 744 mmHg 21%
    08:00 +29°C° 0 mm 9 mps 744 mmHg 20%
    09:00 +32°C° 0 mm 10 mps 744 mmHg 19%
    10:00 +32°C° 0 mm 10 mps 744 mmHg 19%
    11:00 +33°C° 0 mm 9 mps 744 mmHg 19%
    12:00 +34°C° 0 mm 8 mps 744 mmHg 19%
    13:00 +34°C° 0 mm 7 mps 745 mmHg 19%
    14:00 +34°C° 0 mm 5 mps 745 mmHg 19%
    15:00 +34°C° 0 mm 3 mps 745 mmHg 19%
    16:00 +33°C° 0 mm 4 mps 745 mmHg 22%
    17:00 +32°C° 0 mm 6 mps 746 mmHg 25%
    18:00 +30°C° 0 mm 7 mps 747 mmHg 29%
    19:00 +28°C° 0 mm 7 mps 748 mmHg 34%
    20:00 +27°C° 0 mm 7 mps 749 mmHg 40%
    21:00 +24°C° 0 mm 7 mps 750 mmHg 46%
    22:00 +23°C° 0 mm 7 mps 750 mmHg 47%
    23:00 +23°C° 0 mm 7 mps 750 mmHg 48%
    Show more